User: anonymous   Login
Location: Unspecified
(20.0000°S, 0.0000°E)
Time: 22:57:04
(UTC+00:00)
Language:

TIGRISAT - Orbit

View from above orbital plane
View from above orbital plane
View from above satellite
View from above satellite

Ground track
Ground track

The orbit data is extracted from the following two-line orbital elements,

1 40043U 14033AK  20217.53791138 +.00000130 +00000-0 +26498-4 0  9998
2 40043 097.7049 071.4591 0059230 202.0113 157.8552 14.74394997329132
Epoch (UTC): 04 August 2020 12:54:35
Eccentricity: 0.0059230
inclination: 97.7049°
perigee height: 605 km
apogee height: 688 km
right ascension of ascending node: 71.4591°
argument of perigee: 202.0113°
revolutions per day: 14.74394997
mean anomaly at epoch: 157.8552°
orbit number at epoch: 32913

The dashed part of the orbit path shows where the satellite is in the earth's shadow,  

DLR